History for KNYNEWYO218

Midtown, New York, NY — Current Conditions
Daily Summary for June 28, 2017
  Current: High: Low: Average:
Temperature: 66.6°F 73.0°F 66.6°F 69.8°F
Dew Point: 48.6°F 50.2°F 47.9°F 48.7°F
Humidity: 52% 52% 44% 47%
Wind Speed: - 0.0mph - 0.0mph
Wind Gust: - 0.0mph - -
Wind: North - - North
Pressure: 30.14in 30.14in 30.05in -
Precipitation: 0.00in      
Statistics for the rest of the month
    High: Low: Average:
Temperature:   105.3°F 55.8°F 77.9°F
Dew Point:   79.9°F 38.5°F 56.4°F
Humidity:   79.0% 26.0% 52.0%
Wind Speed:   0.0mph from the North - 0.0mph
Wind Gust:   0.0mph from the North - -
Wind:   - - North
Pressure:   30.14in 29.60in -
Precipitation:   0.00in    
KNYNEWYO218 Weather Graph
Tabular Data for June 28, 2017
Time Temp. Dew Point Pressure Wind Gust Humidity Rainfall
00:05 73.0°F 50.2°F 30.05in - 44% -
00:15 72.9°F 50.0°F 30.06in - 44% -
00:25 72.7°F 49.8°F 30.06in - 44% -
00:35 72.3°F 49.5°F 30.06in - 44% -
00:45 72.1°F 49.3°F 30.06in - 44% -
01:06 71.8°F 49.6°F 30.08in - 45% -
01:16 71.4°F 49.3°F 30.07in - 45% -
01:26 71.2°F 49.1°F 30.07in - 45% -
01:36 71.1°F 49.0°F 30.07in - 45% -
01:46 70.7°F 48.6°F 30.07in - 45% -
02:06 70.2°F 48.7°F 30.07in - 46% -
02:16 69.8°F 48.4°F 30.07in - 46% -
02:26 69.6°F 48.8°F 30.08in - 47% -
02:36 69.4°F 48.6°F 30.08in - 47% -
02:46 69.3°F 48.4°F 30.09in - 47% -
03:06 68.9°F 48.1°F 30.09in - 47% -
03:17 68.7°F 48.5°F 30.09in - 48% -
03:27 68.5°F 48.3°F 30.09in - 48% -
03:37 68.4°F 48.2°F 30.09in - 48% -
03:47 68.2°F 48.0°F 30.09in - 48% -
04:07 68.0°F 48.4°F 30.10in - 49% -
04:17 67.8°F 48.2°F 30.10in - 49% -
04:27 67.6°F 48.1°F 30.11in - 49% -
04:37 67.6°F 48.1°F 30.11in - 49% -
04:48 67.5°F 47.9°F 30.12in - 49% -
05:18 67.3°F 48.3°F 30.12in - 50% -
05:28 67.1°F 48.6°F 30.13in - 51% -
05:48 66.9°F 48.4°F 30.13in - 51% -
06:28 66.7°F 48.3°F 30.13in - 51% -
06:38 66.6°F 48.6°F 30.14in - 52% -
Comma Delimited File
Powered by Weather Underground, Inc.